Meteo Giornale » Osservazioni meteo Gran Bretagna » Londra City AP

ore: 18:50 - Osservazioni Meteo Londra City AP
Lat. 51° 30' N Lon. 0° 30' W Alt. 5 metri s.l.m.

foschia Europe/London

8 °C

Foschia

Temp. 24 Ore

8 °C

10 °C

Nord

5.5 Km/h

Dew point 6 °C

Umidità 87 %

Visibilità  5 Km

Il sole sorge alle ore 07:41

Il sole tramonta alle ore 15:59

Data e Ora Cielo e Fenomeni T °C DP °C Um. % Pres. hPa Vis. km Vento km/h
Oggi h: 18:50 foschia Foschia 8 6 87 1027 5 N 5.5
Oggi h: 18:20 foschia Foschia 8 6 87 1027 5 N 5.5
Oggi h: 17:50 foschia Foschia 8 6 87 1027 5 N 3.7
Oggi h: 17:20 foschia Foschia 8 6 87 1027 5 N 1.8
Oggi h: 16:50 foschia Foschia 8 6 87 1027 5 N 1.8
Oggi h: 16:20 coperto Coperto 8 6 87 1027 6 N 3.7
Oggi h: 15:50 coperto Coperto 8 6 87 1027 6 N 5.5
Oggi h: 14:50 coperto Coperto 9 6 81 1026 6 N 3.7
Oggi h: 14:20 coperto Coperto 8 6 87 1026 6 E/NE 7.4
Oggi h: 13:50 coperto Coperto 8 6 87 1026 7 N 5.5
Oggi h: 13:20 coperto Coperto 8 6 87 1026 7 E/NE 9.3
Oggi h: 12:50 coperto Coperto 8 6 87 1026 7 NE 7.4
Oggi h: 12:20 coperto Coperto 8 6 87 1026 7 N 5.5
Oggi h: 11:50 coperto Coperto 8 6 87 1026 6 NE 7.4
Oggi h: 11:20 coperto Coperto 8 6 87 1026 7 E/NE 11.1
Oggi h: 10:50 coperto Coperto 8 6 87 1026 7 E/NE 9.3
Oggi h: 10:20 coperto Coperto 8 6 87 1026 7 E 11.1
Oggi h: 09:50 coperto Coperto 8 6 87 1026 6 NE 9.3
Oggi h: 09:20 coperto Coperto 8 6 87 1026 7 E/NE 9.3
Oggi h: 08:50 coperto Coperto 8 6 87 1026 6 NE 9.3
Oggi h: 08:20 coperto Coperto 8 6 87 1026 7 E 13
Oggi h: 07:50 coperto Coperto 9 6 81 1025 7 E/NE 11.1
Oggi h: 07:20 coperto Coperto 9 7 87 1025 6 NE 9.3
Oggi h: 06:50 foschia Foschia 9 7 87 1025 5 NE 7.4
Oggi h: 06:20 coperto Coperto 9 7 87 1025 6 NE 11.1
Oggi h: 05:50 foschia Foschia 10 8 87 1024 5 NE 11.1
Oggi h: 05:20 foschia Foschia 10 8 87 1024 5 N 5.5
Oggi h: 04:50 foschia Foschia 9 9 100 1024 4 N 5.5
Oggi h: 03:50 foschia Foschia 9 9 100 1024 3 N 5.5
Oggi h: 02:50 nebbia Nebbia 9 8 93 1024 0.5 N 5.5
Oggi h: 02:20 nebbia Nebbia 9 8 93 1024 0.45 E/NE 7.4
Oggi h: 01:20 foschia Foschia 9 8 93 1023 1 N 5.5
Oggi h: 00:50 foschia Foschia 9 8 93 1023 2 N 5.5
Oggi h: 00:20 foschia Foschia 9 8 93 1023 2 NE 9.3
Ieri h: 23:50 foschia Foschia 9 8 93 1023 2 E/NE 9.3
Ieri h: 23:20 foschia Foschia 9 8 93 1023 3 E/NE 9.3
Ieri h: 22:50 foschia Foschia 9 8 93 1023 3 E/NE 7.4
Ieri h: 22:20 foschia Foschia 9 8 93 1023 3 NE 7.4
Ieri h: 21:50 foschia Foschia 10 8 87 1022 4 NE 7.4
Ieri h: 21:20 foschia Foschia 10 8 87 1022 5 N 5.5
Ieri h: 20:50 foschia Foschia 10 8 87 1022 5 NE 11.1
Ieri h: 20:20 foschia Foschia 10 8 87 1022 4 E/NE 13
Ieri h: 19:50 foschia Foschia 10 8 87 1022 4 E/NE 13
Ieri h: 19:20 foschia Foschia 10 8 87 1021 4 E/NE 9.3
Ieri h: 18:50 foschia Foschia 10 8 87 1021 4 NE 11.1